Temp
-12 -12 -12 -12 -12 -12 -12 -12 -12 -12 -12 -12 -12 -12 -13 -13 -13 -13 -13 -12 -12 -12 -12 -13 -13 -13 -13 -13 -13 -12 -12 -12 -12 -12 -12 -13 -13 -12 -12 -12 -12 -12 -12 -12 -12 -12 -13 -13 -13 -14 -14 -13 -13 -13 -13 -14 -14 -14 -14 -14 -14 -14
-12 -12 -12 -12 -12 -12 -12 -12 -12 -12 -12 -12 -12 -12 -13 -13 -13 -13 -13 -13 -12 -12 -13 -13 -13 -13 -13 -13 -13 -13 -13 -12 -12 -12 -13 -13 -13 -13 -12 -12 -12 -12 -12 -12 -12 -12 -13 -13 -13 -14 -14 -14 -14 -13 -13 -14 -14 -14 -14 -15 -15 -14
-12 -12 -12 -12 -12 -12 -12 -12 -12 -12 -12 -12 -12 -13 -13 -13 -13 -13 -13 -13 -13 -13 -13 -13 -13 -13 -13 -13 -13 -13 -13 -13 -13 -13 -13 -13 -13 -13 -13 -12 -13 -13 -13 -13 -13 -13 -13 -13 -13 -14 -14 -14 -14 -14 -14 -13 -14 -14 -14 -15 -15 -15
-12 -12 -12 -12 -12 -13 -13 -13 -13 -13 -12 -12 -13 -13 -13 -13 -13 -13 -13 -13 -13 -13 -13 -13 -13 -13 -13 -13 -13 -13 -13 -13 -13 -13 -13 -13 -13 -13 -13 -13 -13 -13 -13 -13 -13 -13 -13 -13 -13 -14 -14 -14 -14 -14 -14 -14 -14 -14 -14 -15 -15 -15
-12 -12 -12 -12 -13 -13 -13 -13 -13 -13 -13 -13 -13 -13 -13 -13 -13 -13 -13 -13 -13 -13 -13 -13 -13 -13 -13 -13 -13 -13 -13 -13 -13 -13 -13 -13 -13 -13 -13 -13 -13 -13 -13 -13 -13 -13 -13 -13 -14 -14 -14 -14 -14 -14 -14 -14 -14 -14 -14 -15 -15 -15
-13 -13 -13 -13 -13 -14 -14 -14 -14 -14 -14 -13 -13 -13 -13 -13 -13 -13 -13 -13 -13 -13 -13 -13 -13 -13 -13 -13 -13 -13 -13 -13 -13 -13 -13 -13 -13 -13 -13 -13 -13 -13 -13 -13 -13 -13 -13 -14 -14 -14 -14 -14 -14 -14 -14 -14 -14 -14 -14 -14 -15 -15
-13 -13 -13 -14 -14 -14 -14 -14 -14 -14 -14 -14 -14 -14 -13 -13 -13 -14 -14 -14 -14 -14 -13 -13 -13 -13 -13 -13 -13 -13 -13 -13 -13 -14 -14 -14 -14 -14 -14 -13 -13 -13 -13 -13 -13 -13 -14 -14 -14 -15 -15 -14 -14 -14 -14 -14 -14 -14 -14 -14 -15 -15
-14 -14 -14 -14 -14 -14 -14 -14 -14 -14 -14 -14 -14 -14 -14 -14 -14 -14 -14 -14 -14 -14 -13 -13 -13 -13 -13 -13 -13 -13 -13 -13 -13 -14 -14 -14 -14 -14 -14 -14 -13 -13 -13 -13 -13 -13 -14 -14 -14 -15 -15 -15 -14 -14 -14 -14 -14 -14 -14 -14 -14 -15
-14 -14 -14 -14 -14 -14 -14 -14 -14 -14 -14 -14 -14 -14 -14 -14 -14 -14 -14 -14 -13 -13 -13 -13 -13 -13 -13 -13 -13 -13 -13 -13 -14 -14 -14 -14 -14 -14 -14 -14 -14 -14 -13 -13 -13 -14 -14 -14 -15 -15 -15 -15 -14 -14 -14 -14 -14 -14 -14 -14 -14 -15
-14 -14 -14 -14 -14 -14 -14 -14 -14 -14 -14 -14 -14 -14 -14 -14 -14 -14 -13 -13 -13 -13 -13 -13 -13 -13 -13 -13 -13 -13 -13 -14 -14 -14 -14 -14 -14 -14 -14 -14 -14 -14 -14 -14 -14 -14 -14 -14 -15 -15 -15 -15 -15 -14 -14 -14 -14 -14 -14 -14 -14 -15
-14 -14 -14 -14 -15 -15 -15 -15 -14 -14 -14 -14 -14 -14 -14 -14 -13 -13 -13 -13 -13 -13 -13 -13 -13 -13 -13 -13 -13 -13 -13 -14 -14 -14 -14 -14 -14 -14 -14 -14 -14 -14 -14 -14 -14 -14 -14 -15 -15 -15 -15 -15 -14 -14 -14 -14 -14 -14 -14 -14 -14 -14
-14 -14 -14 -15 -15 -15 -15 -15 -14 -14 -14 -14 -14 -14 -13 -13 -13 -13 -13 -13 -14 -14 -13 -13 -13 -13 -13 -13 -13 -13 -13 -13 -14 -14 -14 -14 -14 -14 -14 -14 -14 -14 -14 -14 -14 -14 -14 -14 -15 -15 -15 -15 -14 -14 -14 -14 -14 -14 -14 -14 -14 -14
-14 -14 -15 -15 -15 -15 -15 -15 -14 -14 -14 -14 -14 -14 -13 -13 -13 -14 -13 -13 -14 -14 -14 -14 -14 -14 -14 -14 -14 -13 -13 -13 -13 -14 -14 -14 -14 -15 -15 -15 -14 -14 -14 -14 -14 -14 -14 -14 -14 -14 -14 -14 -14 -14 -14 -14 -14 -14 -14 -14 -14 -14
-14 -15 -15 -15 -15 -15 -15 -15 -15 -14 -14 -14 -14 -14 -13 -13 -14 -14 -13 -13 -14 -14 -14 -14 -14 -14 -14 -14 -14 -14 -14 -14 -14 -14 -14 -14 -15 -15 -15 -15 -15 -15 -15 -15 -14 -14 -14 -14 -14 -14 -14 -14 -14 -14 -14 -14 -14 -14 -14 -14 -14 -14
-14 -15 -15 -15 -15 -15 -15 -15 -15 -14 -14 -14 -14 -14 -14 -14 -14 -14 -14 -14 -14 -14 -14 -14 -14 -14 -14 -14 -14 -14 -15 -14 -14 -14 -14 -14 -15 -15 -15 -15 -15 -15 -14 -15 -15 -14 -14 -14 -14 -14 -14 -14 -14 -14 -14 -14 -14 -14 -14 -14 -14 -14
-15 -15 -15 -15 -15 -15 -15 -15 -15 -15 -14 -14 -14 -14 -14 -14 -14 -14 -14 -14 -14 -14 -14 -14 -14 -14 -14 -14 -14 -14 -14 -14 -14 -14 -14 -15 -15 -15 -15 -14 -14 -14 -14 -14 -14 -14 -15 -15 -15 -15 -14 -14 -14 -14 -14 -14 -14 -14 -14 -14 -14 -14
-15 -15 -15 -15 -15 -15 -15 -15 -15 -15 -14 -14 -14 -14 -14 -14 -14 -14 -14 -14 -14 -14 -14 -14 -14 -14 -14 -14 -14 -14 -14 -14 -14 -15 -15 -15 -15 -15 -14 -14 -14 -14 -14 -14 -14 -14 -14 -15 -15 -15 -14 -14 -14 -14 -14 -14 -14 -14 -14 -14 -14 -14
-15 -15 -15 -15 -15 -15 -15 -15 -15 -15 -14 -14 -14 -14 -14 -14 -14 -14 -14 -14 -14 -14 -14 -14 -14 -14 -14 -14 -14 -14 -14 -14 -14 -15 -15 -15 -15 -15 -14 -14 -14 -14 -14 -14 -14 -14 -14 -14 -15 -15 -14 -14 -14 -14 -14 -14 -14 -14 -14 -14 -14 -15
-15 -15 -15 -15 -15 -15 -15 -15 -15 -15 -15 -14 -14 -14 -14 -14 -14 -14 -14 -14 -14 -14 -14 -14 -14 -14 -14 -14 -14 -14 -14 -14 -14 -14 -15 -15 -15 -14 -14 -14 -14 -14 -14 -14 -14 -14 -14 -14 -14 -14 -14 -14 -14 -14 -14 -14 -14 -14 -14 -14 -14 -15
-15 -15 -15 -15 -15 -16 -16 -15 -15 -15 -15 -15 -14 -14 -14 -14 -14 -14 -14 -14 -14 -14 -14 -14 -14 -14 -14 -14 -14 -14 -14 -14 -14 -14 -15 -15 -15 -14 -14 -14 -14 -14 -14 -14 -14 -14 -14 -14 -14 -14 -15 -15 -14 -14 -14 -14 -14 -15 -14 -14 -14 -14
-15 -16 -16 -16 -16 -16 -16 -16 -15 -15 -15 -15 -14 -14 -14 -14 -14 -14 -14 -14 -14 -14 -14 -14 -14 -14 -14 -14 -14 -14 -14 -14 -14 -14 -14 -15 -14 -14 -14 -14 -14 -14 -14 -14 -14 -14 -14 -14 -14 -14 -14 -14 -14 -14 -14 -14 -14 -14 -15 -14 -14 -14
-16 -16 -16 -16 -16 -16 -16 -16 -15 -15 -15 -15 -14 -14 -14 -14 -14 -14 -14 -14 -14 -14 -14 -14 -14 -14 -14 -14 -14 -13 -14 -14 -14 -14 -14 -14 -14 -14 -14 -14 -14 -14 -14 -14 -14 -14 -14 -14 -14 -14 -14 -14 -15 -15 -14 -14 -14 -14 -14 -14 -15 -15
-16 -16 -16 -16 -16 -16 -16 -16 -15 -15 -15 -15 -14 -15 -15 -15 -15 -15 -14 -14 -14 -14 -14 -14 -14 -14 -14 -14 -14 -14 -14 -14 -14 -14 -14 -14 -14 -14 -14 -14 -14 -14 -14 -14 -14 -14 -14 -14 -14 -14 -15 -14 -14 -14 -14 -14 -14 -14 -14 -14 -14 -14
-16 -16 -16 -16 -16 -16 -16 -16 -15 -15 -15 -15 -15 -15 -15 -15 -15 -15 -15 -14 -14 -14 -14 -14 -14 -14 -14 -14 -14 -14 -14 -14 -14 -14 -14 -14 -14 -14 -14 -14 -14 -14 -14 -14 -14 -14 -15 -15 -14 -14 -14 -14 -14 -14 -14 -14 -14 -14 -14 -14 -14 -14
-16 -15 -15 -16 -16 -16 -16 -16 -16 -16 -16 -15 -15 -15 -15 -15 -15 -15 -15 -15 -15 -14 -14 -14 -14 -14 -14 -14 -14 -14 -14 -14 -14 -14 -14 -14 -14 -14 -14 -14 -14 -14 -14 -14 -14 -14 -14 -15 -15 -14 -14 -14 -14 -14 -14 -14 -14 -14 -14 -14 -14 -14
-16 -15 -15 -16 -16 -16 -16 -16 -16 -16 -16 -16 -15 -15 -15 -15 -15 -15 -15 -15 -15 -15 -15 -14 -14 -14 -14 -14 -14 -14 -14 -14 -14 -14 -14 -14 -14 -14 -14 -14 -14 -14 -14 -14 -14 -14 -14 -14 -14 -14 -14 -14 -14 -14 -14 -14 -14 -14 -14 -14 -14 -14
-16 -15 -16 -16 -16 -16 -16 -16 -16 -16 -16 -16 -16 -15 -15 -15 -15 -15 -15 -15 -15 -15 -15 -15 -14 -14 -14 -14 -14 -14 -14 -14 -14 -14 -14 -14 -14 -14 -14 -14 -14 -14 -14 -14 -14 -14 -14 -14 -14 -14 -14 -14 -14 -14 -14 -14 -14 -14 -14 -14 -14 -14
-16 -16 -15 -16 -16 -16 -16 -16 -16 -16 -16 -16 -16 -16 -15 -15 -15 -15 -15 -15 -15 -15 -15 -15 -15 -14 -14 -14 -14 -14 -14 -14 -14 -14 -14 -14 -14 -14 -14 -14 -14 -14 -14 -14 -14 -14 -14 -14 -14 -14 -14 -14 -14 -14 -14 -14 -14 -14 -14 -14 -14 -14
-16 -16 -16 -16 -16 -16 -16 -16 -16 -16 -16 -16 -16 -16 -16 -16 -16 -15 -15 -15 -16 -16 -15 -15 -15 -15 -14 -14 -14 -14 -14 -14 -14 -14 -14 -14 -15 -15 -15 -14 -14 -14 -14 -14 -14 -14 -14 -14 -14 -14 -14 -14 -14 -14 -14 -14 -14 -14 -14 -14 -14 -14
-16 -16 -16 -16 -16 -16 -16 -16 -16 -16 -16 -16 -16 -16 -16 -16 -16 -16 -15 -15 -16 -16 -16 -15 -15 -15 -15 -14 -14 -14 -14 -14 -14 -14 -15 -15 -15 -15 -15 -15 -15 -15 -15 -15 -14 -14 -14 -14 -14 -14 -14 -14 -14 -14 -14 -14 -14 -14 -14 -14 -14 -14
-16 -16 -16 -16 -16 -16 -16 -16 -16 -16 -16 -16 -16 -16 -16 -16 -16 -16 -16 -15 -16 -16 -16 -16 -15 -15 -15 -15 -15 -15 -15 -15 -15 -15 -15 -15 -15 -15 -15 -15 -15 -15 -15 -15 -15 -15 -14 -14 -14 -14 -14 -14 -14 -14 -14 -14 -14 -14 -14 -14 -14 -14
-16 -16 -16 -16 -16 -15 -15 -15 -15 -16 -16 -15 -15 -16 -16 -16 -16 -16 -16 -16 -16 -16 -16 -16 -16 -15 -15 -15 -15 -15 -15 -15 -15 -15 -15 -15 -15 -15 -15 -15 -15 -15 -15 -15 -15 -15 -15 -15 -15 -15 -15 -15 -15 -15 -15 -14 -14 -14 -14 -14 -14 -14
-16 -16 -16 -16 -16 -16 -16 -16 -16 -16 -16 -16 -16 -16 -16 -16 -16 -16 -16 -16 -16 -16 -16 -16 -16 -16 -16 -15 -15 -15 -15 -15 -15 -15 -15 -15 -15 -15 -15 -15 -15 -15 -15 -15 -15 -15 -15 -15 -15 -15 -15 -15 -15 -15 -15 -15 -15 -15 -15 -15 -15 -14
-15 -15 -16 -16 -16 -16 -16 -16 -16 -16 -16 -16 -16 -16 -16 -16 -16 -16 -17 -17 -16 -16 -16 -16 -16 -16 -16 -16 -16 -16 -16 -15 -15 -15 -15 -15 -15 -15 -15 -15 -16 -16 -16 -16 -15 -15 -15 -15 -15 -15 -15 -15 -15 -15 -15 -15 -15 -15 -15 -15 -15 -15
-15 -15 -16 -16 -16 -16 -16 -16 -16 -16 -16 -16 -16 -16 -16 -16 -16 -16 -17 -17 -16 -16 -16 -16 -16 -16 -16 -16 -16 -16 -16 -16 -15 -15 -15 -15 -15 -16 -16 -16 -16 -16 -16 -16 -16 -16 -16 -16 -16 -16 -16 -16 -16 -15 -15 -15 -15 -15 -15 -15 -15 -15
-15 -15 -16 -16 -17 -17 -17 -17 -17 -17 -17 -16 -16 -16 -16 -16 -16 -17 -17 -17 -17 -16 -16 -17 -17 -17 -17 -16 -16 -16 -16 -16 -16 -16 -16 -16 -16 -16 -16 -16 -16 -16 -16 -16 -16 -16 -16 -16 -16 -16 -16 -16 -16 -16 -16 -16 -16 -16 -16 -16 -16 -16
-16 -16 -17 -17 -17 -17 -17 -17 -17 -17 -17 -16 -16 -16 -16 -16 -17 -17 -17 -17 -17 -17 -17 -17 -17 -17 -17 -17 -17 -16 -16 -16 -16 -16 -16 -16 -16 -16 -16 -16 -16 -16 -16 -16 -17 -17 -17 -17 -17 -17 -17 -17 -17 -17 -17 -17 -17 -16 -16 -16 -16 -16
Height
5809 5809 5809 5810 5810 5811 5811 5811 5811 5812 5812 5812 5813 5813 5814 5815 5815 5816 5816 5816 5816 5816 5817 5817 5817 5817 5817 5817 5818 5818 5818 5818 5819 5819 5819 5819 5819 5819 5819 5819 5820 5821 5822 5823 5824 5826 5827 5829 5830 5831 5832 5832 5831 5832 5832 5833 5834 5835 5836 5837 5837 5838
5807 5807 5807 5807 5808 5809 5809 5809 5810 5810 5810 5810 5811 5812 5812 5813 5814 5814 5814 5814 5814 5815 5815 5815 5815 5815 5815 5815 5815 5816 5816 5816 5817 5817 5817 5818 5817 5817 5817 5817 5818 5819 5820 5821 5823 5824 5825 5826 5827 5829 5830 5830 5830 5830 5831 5832 5832 5833 5834 5835 5836 5837
5804 5805 5805 5805 5806 5806 5807 5808 5808 5809 5809 5809 5810 5810 5810 5811 5812 5812 5812 5812 5813 5813 5813 5813 5813 5813 5813 5813 5813 5814 5814 5814 5814 5815 5815 5816 5815 5815 5815 5816 5816 5817 5818 5819 5820 5822 5823 5824 5825 5827 5828 5828 5828 5829 5829 5830 5831 5831 5832 5833 5834 5835
5802 5802 5803 5803 5803 5804 5805 5806 5807 5807 5808 5808 5808 5808 5809 5809 5810 5810 5810 5810 5810 5810 5810 5810 5810 5810 5811 5811 5811 5812 5812 5812 5812 5812 5813 5813 5813 5813 5813 5814 5815 5815 5816 5817 5818 5819 5821 5822 5823 5825 5826 5826 5827 5827 5828 5828 5829 5830 5831 5831 5832 5833
5799 5800 5800 5801 5801 5802 5803 5804 5804 5805 5805 5805 5805 5806 5806 5807 5807 5808 5808 5808 5808 5808 5808 5808 5808 5808 5808 5809 5809 5810 5810 5810 5810 5810 5810 5811 5811 5811 5811 5812 5813 5813 5814 5814 5815 5817 5818 5820 5821 5822 5823 5824 5824 5825 5826 5826 5827 5828 5828 5829 5829 5830
5797 5798 5798 5799 5800 5800 5801 5802 5802 5802 5802 5803 5803 5803 5804 5805 5805 5806 5806 5805 5805 5805 5805 5805 5806 5806 5806 5807 5807 5808 5808 5808 5808 5808 5808 5808 5808 5809 5809 5810 5811 5812 5812 5812 5813 5814 5816 5817 5819 5820 5821 5821 5822 5823 5824 5824 5825 5825 5826 5826 5827 5827
5795 5796 5796 5797 5798 5799 5799 5799 5799 5800 5800 5800 5801 5801 5802 5803 5803 5803 5803 5803 5803 5803 5803 5803 5804 5804 5805 5805 5805 5806 5806 5806 5806 5805 5806 5806 5806 5807 5808 5809 5809 5810 5810 5811 5811 5812 5814 5815 5817 5818 5819 5820 5820 5821 5821 5822 5823 5823 5823 5824 5824 5825
5793 5794 5795 5796 5796 5797 5797 5797 5797 5798 5798 5798 5799 5800 5801 5801 5801 5801 5800 5800 5800 5801 5802 5802 5803 5803 5803 5803 5803 5803 5803 5804 5803 5803 5804 5805 5806 5806 5807 5807 5808 5808 5809 5809 5810 5811 5812 5813 5815 5816 5817 5818 5818 5819 5820 5820 5821 5821 5822 5822 5823 5824
5792 5793 5793 5794 5794 5794 5795 5795 5795 5796 5796 5797 5797 5798 5799 5799 5799 5798 5798 5799 5799 5800 5801 5801 5801 5801 5800 5800 5800 5801 5801 5801 5801 5802 5803 5804 5804 5805 5805 5805 5806 5807 5807 5808 5809 5809 5810 5812 5813 5814 5815 5816 5817 5817 5818 5818 5819 5819 5820 5820 5821 5821
5791 5791 5792 5792 5792 5792 5792 5793 5793 5794 5794 5795 5796 5797 5797 5797 5797 5797 5797 5797 5797 5798 5798 5798 5798 5798 5798 5798 5799 5799 5799 5799 5799 5800 5801 5802 5803 5803 5804 5804 5805 5805 5806 5806 5807 5808 5808 5810 5811 5812 5813 5814 5815 5816 5816 5817 5817 5818 5818 5818 5818 5819
5789 5789 5789 5789 5789 5790 5790 5791 5791 5792 5793 5794 5795 5795 5795 5795 5795 5795 5796 5795 5795 5795 5796 5796 5796 5796 5796 5797 5797 5797 5797 5797 5797 5798 5799 5800 5801 5802 5802 5803 5803 5803 5804 5805 5805 5806 5806 5807 5809 5810 5811 5812 5813 5814 5815 5815 5816 5816 5816 5817 5817 5817
5787 5787 5787 5787 5787 5788 5789 5790 5791 5791 5792 5793 5793 5794 5794 5793 5793 5794 5794 5793 5792 5793 5794 5795 5794 5794 5794 5796 5796 5795 5795 5795 5795 5796 5797 5798 5799 5800 5801 5801 5801 5802 5803 5803 5804 5804 5805 5806 5807 5808 5809 5810 5811 5812 5813 5813 5814 5814 5814 5815 5815 5815
5785 5785 5785 5786 5787 5787 5788 5789 5790 5791 5791 5792 5792 5792 5792 5791 5791 5792 5793 5792 5791 5792 5793 5793 5792 5792 5794 5795 5794 5794 5794 5794 5794 5795 5796 5797 5798 5799 5799 5800 5800 5801 5802 5802 5803 5803 5804 5805 5806 5806 5807 5808 5809 5810 5811 5811 5811 5811 5812 5812 5813 5813
5783 5784 5784 5785 5786 5786 5787 5788 5789 5790 5790 5790 5791 5791 5791 5790 5790 5791 5791 5790 5790 5791 5792 5791 5791 5791 5793 5793 5792 5792 5793 5793 5793 5793 5794 5795 5796 5797 5797 5798 5799 5800 5800 5801 5802 5802 5803 5803 5804 5805 5805 5806 5807 5808 5809 5809 5809 5809 5809 5810 5810 5810
5782 5783 5784 5784 5785 5786 5786 5787 5788 5789 5789 5789 5790 5790 5789 5789 5788 5789 5790 5789 5789 5791 5791 5790 5791 5791 5792 5792 5791 5791 5792 5792 5792 5792 5793 5793 5794 5795 5796 5796 5797 5798 5799 5799 5800 5801 5801 5802 5802 5803 5804 5804 5805 5806 5807 5807 5807 5807 5807 5807 5808 5808
5782 5782 5783 5784 5784 5784 5785 5786 5787 5787 5788 5788 5789 5788 5788 5787 5787 5787 5789 5789 5788 5789 5790 5790 5790 5790 5791 5791 5791 5790 5790 5791 5791 5792 5792 5792 5792 5793 5794 5795 5795 5796 5796 5797 5798 5798 5799 5800 5801 5801 5802 5803 5803 5804 5804 5805 5805 5805 5805 5806 5806 5806
5782 5783 5783 5783 5783 5783 5784 5785 5785 5786 5787 5787 5787 5787 5787 5787 5786 5786 5787 5788 5788 5788 5789 5789 5789 5789 5789 5789 5789 5790 5790 5790 5790 5791 5792 5792 5791 5792 5792 5793 5794 5794 5794 5795 5795 5796 5797 5798 5799 5800 5800 5801 5801 5801 5802 5802 5803 5803 5803 5804 5804 5804
5781 5782 5782 5782 5781 5782 5783 5784 5785 5785 5786 5786 5786 5786 5786 5785 5785 5785 5786 5787 5787 5787 5787 5788 5788 5787 5787 5787 5787 5788 5789 5789 5789 5790 5790 5791 5791 5791 5791 5791 5792 5792 5792 5793 5794 5794 5794 5795 5796 5797 5798 5799 5799 5799 5799 5799 5800 5800 5801 5801 5802 5802
5780 5780 5780 5780 5780 5781 5782 5783 5784 5785 5785 5785 5785 5784 5784 5784 5784 5784 5785 5785 5786 5786 5786 5786 5786 5786 5785 5785 5785 5786 5787 5787 5787 5788 5788 5789 5789 5789 5790 5790 5790 5791 5791 5792 5792 5792 5793 5793 5794 5795 5796 5796 5796 5796 5796 5796 5797 5797 5798 5799 5799 5800
5778 5778 5778 5778 5779 5780 5781 5783 5783 5784 5784 5784 5784 5783 5783 5783 5783 5783 5783 5784 5784 5784 5785 5785 5785 5785 5784 5784 5784 5784 5785 5785 5785 5786 5787 5788 5788 5788 5788 5789 5789 5790 5790 5791 5791 5791 5791 5792 5793 5793 5793 5793 5794 5794 5794 5794 5795 5795 5796 5796 5797 5797
5777 5777 5777 5777 5778 5779 5781 5782 5782 5782 5782 5783 5783 5783 5782 5782 5782 5782 5782 5782 5783 5783 5783 5783 5783 5783 5783 5782 5782 5782 5783 5783 5784 5784 5785 5786 5787 5787 5787 5788 5788 5789 5790 5790 5789 5789 5790 5790 5791 5791 5790 5791 5791 5792 5792 5793 5793 5793 5794 5794 5795 5795
5776 5776 5776 5777 5778 5778 5779 5780 5781 5781 5781 5781 5781 5781 5781 5781 5781 5781 5781 5781 5781 5781 5781 5781 5781 5781 5781 5781 5780 5780 5781 5781 5782 5783 5784 5785 5785 5786 5786 5787 5787 5788 5789 5789 5787 5787 5788 5788 5788 5788 5788 5788 5789 5789 5790 5791 5791 5791 5792 5792 5793 5793
5776 5776 5776 5776 5777 5777 5778 5779 5779 5779 5780 5780 5780 5780 5780 5780 5780 5779 5779 5779 5779 5779 5779 5779 5779 5779 5779 5779 5779 5779 5779 5780 5780 5781 5782 5783 5784 5784 5785 5786 5786 5787 5788 5787 5786 5786 5786 5786 5786 5786 5786 5786 5787 5788 5788 5789 5789 5789 5789 5790 5790 5791
5775 5775 5775 5776 5776 5776 5777 5777 5777 5777 5778 5778 5779 5779 5779 5778 5778 5778 5778 5777 5777 5777 5777 5777 5777 5777 5777 5778 5778 5778 5778 5778 5779 5780 5781 5781 5782 5783 5784 5784 5784 5785 5786 5786 5785 5784 5784 5784 5784 5784 5784 5785 5785 5786 5786 5786 5787 5787 5787 5788 5788 5788
5774 5774 5775 5775 5775 5775 5775 5775 5775 5775 5776 5777 5777 5777 5778 5777 5777 5776 5776 5776 5776 5776 5776 5776 5776 5775 5776 5776 5776 5777 5777 5777 5778 5778 5779 5780 5780 5781 5782 5782 5783 5783 5783 5784 5784 5783 5782 5781 5781 5782 5782 5782 5783 5783 5784 5785 5785 5785 5785 5785 5786 5786
5773 5773 5773 5773 5773 5774 5774 5774 5773 5773 5775 5776 5776 5776 5776 5776 5775 5775 5774 5774 5774 5774 5774 5774 5774 5774 5774 5774 5775 5775 5775 5776 5776 5777 5777 5778 5779 5779 5780 5781 5781 5781 5781 5781 5782 5782 5781 5780 5779 5779 5780 5780 5780 5781 5781 5782 5782 5783 5783 5783 5784 5784
5771 5772 5772 5772 5772 5773 5773 5772 5772 5772 5773 5774 5775 5775 5775 5774 5774 5774 5773 5773 5773 5772 5772 5772 5772 5772 5772 5772 5773 5773 5773 5774 5774 5774 5775 5776 5777 5778 5778 5778 5779 5779 5779 5779 5779 5779 5780 5779 5778 5778 5778 5778 5779 5779 5779 5780 5780 5780 5781 5781 5781 5782
5770 5771 5772 5772 5772 5772 5772 5772 5771 5770 5771 5771 5772 5773 5773 5772 5772 5772 5772 5771 5771 5770 5770 5770 5770 5770 5770 5770 5770 5771 5771 5772 5772 5772 5773 5774 5775 5775 5776 5776 5776 5777 5777 5777 5777 5777 5777 5777 5777 5777 5777 5777 5777 5777 5777 5777 5777 5778 5778 5779 5779 5779
5769 5770 5771 5771 5771 5770 5770 5770 5769 5769 5769 5769 5770 5771 5771 5771 5771 5770 5770 5769 5769 5769 5769 5768 5768 5768 5768 5768 5768 5768 5769 5769 5770 5771 5771 5772 5773 5773 5773 5774 5774 5775 5775 5775 5775 5775 5775 5775 5775 5775 5775 5775 5775 5775 5775 5775 5775 5775 5775 5776 5776 5777
5768 5768 5768 5768 5767 5767 5767 5767 5767 5767 5767 5767 5768 5769 5769 5769 5769 5768 5768 5767 5767 5767 5767 5767 5766 5766 5765 5765 5766 5766 5766 5767 5767 5768 5769 5770 5770 5771 5771 5771 5772 5773 5773 5773 5774 5773 5773 5773 5773 5772 5772 5772 5772 5773 5773 5773 5773 5773 5773 5773 5773 5773
5765 5765 5765 5764 5764 5764 5764 5764 5764 5764 5764 5764 5765 5766 5766 5766 5766 5766 5766 5766 5765 5765 5765 5765 5764 5764 5763 5763 5763 5763 5764 5764 5765 5765 5766 5767 5768 5768 5768 5769 5769 5770 5770 5771 5771 5771 5770 5770 5770 5770 5770 5770 5770 5770 5770 5770 5770 5770 5770 5770 5770 5770
5762 5761 5761 5761 5761 5761 5761 5761 5761 5761 5762 5762 5762 5763 5763 5763 5763 5763 5763 5763 5763 5763 5762 5762 5762 5762 5761 5761 5761 5761 5762 5762 5762 5763 5764 5764 5765 5765 5765 5766 5766 5767 5767 5767 5767 5767 5767 5767 5767 5767 5767 5767 5767 5767 5767 5767 5767 5767 5767 5767 5767 5767
5758 5759 5759 5759 5759 5759 5759 5759 5759 5760 5759 5759 5760 5760 5760 5760 5759 5759 5759 5760 5760 5761 5760 5760 5760 5760 5759 5759 5759 5759 5760 5760 5760 5761 5761 5762 5762 5762 5762 5763 5764 5764 5764 5764 5764 5764 5764 5765 5765 5765 5765 5765 5765 5765 5765 5765 5765 5765 5764 5764 5764 5765
5756 5757 5757 5757 5757 5756 5756 5756 5757 5757 5756 5756 5756 5757 5757 5756 5755 5755 5756 5756 5757 5758 5758 5758 5758 5758 5758 5758 5758 5758 5758 5758 5758 5758 5759 5759 5760 5759 5759 5760 5760 5761 5762 5762 5762 5762 5762 5762 5762 5763 5763 5764 5764 5763 5763 5763 5763 5763 5762 5762 5763 5763
5754 5754 5754 5753 5752 5752 5752 5752 5753 5753 5753 5753 5753 5753 5753 5753 5751 5752 5753 5753 5754 5755 5755 5756 5756 5756 5756 5756 5756 5756 5756 5756 5756 5756 5756 5757 5757 5757 5757 5757 5758 5758 5759 5759 5759 5759 5760 5760 5760 5760 5761 5761 5762 5762 5762 5761 5761 5761 5761 5761 5761 5761
5750 5750 5750 5749 5749 5750 5750 5750 5750 5750 5750 5750 5750 5750 5750 5750 5749 5749 5750 5751 5752 5753 5753 5754 5754 5754 5754 5754 5754 5754 5754 5754 5754 5754 5754 5754 5754 5754 5755 5755 5755 5755 5756 5756 5757 5757 5757 5757 5757 5758 5758 5759 5759 5760 5760 5760 5760 5759 5759 5759 5759 5759
5748 5748 5747 5747 5747 5747 5747 5747 5747 5747 5748 5748 5748 5748 5748 5748 5748 5748 5748 5748 5749 5750 5751 5752 5752 5752 5752 5752 5752 5752 5752 5752 5752 5752 5752 5752 5752 5753 5753 5753 5753 5753 5753 5754 5754 5754 5754 5755 5755 5756 5756 5757 5757 5757 5758 5758 5758 5758 5757 5757 5757 5757
Wind_Speed
21 22 23 22 20 18 16 15 16 17 19 20 21 22 23 24 24 25 26 27 27 26 25 24 23 21 20 20 19 19 19 18 17 16 16 16 17 17 18 19 19 19 18 18 19 20 20 21 21 21 21 22 22 21 21 20 20 21 21 21 21 21
19 20 20 19 18 15 13 15 16 18 20 21 22 23 24 25 26 27 27 27 27 26 24 23 22 21 20 19 18 18 17 17 17 16 15 15 16 17 18 19 19 19 18 18 18 19 20 21 21 21 22 23 23 22 22 21 21 21 22 23 22 22
18 18 17 15 14 11 11 14 16 18 20 22 23 25 26 26 27 27 27 26 25 24 23 22 21 20 19 18 17 16 16 16 16 16 15 15 16 17 18 19 19 18 18 18 18 18 19 20 20 20 22 23 24 23 22 21 21 21 22 23 24 23
15 16 16 14 12 9 10 14 16 19 21 23 25 26 26 26 26 26 26 25 23 23 22 22 21 20 19 18 17 16 16 16 15 15 14 15 16 17 18 18 18 18 18 18 18 18 18 19 19 19 20 23 24 24 23 22 21 21 22 23 24 25
12 12 13 11 9 9 11 14 16 18 21 23 24 25 25 25 25 25 24 23 23 22 22 21 21 21 20 18 17 15 15 15 15 14 14 15 16 17 18 18 18 17 18 18 18 18 18 18 18 18 19 22 24 24 23 22 22 21 21 23 25 26
9 8 7 7 7 10 12 14 15 17 19 21 22 24 24 24 24 23 23 23 22 22 21 21 21 20 19 18 17 15 14 14 15 14 14 15 16 17 18 18 17 17 18 19 19 19 18 18 17 18 19 22 24 24 24 23 22 22 22 23 25 26
6 5 5 7 10 12 13 14 14 16 18 20 21 22 22 22 22 22 22 22 22 21 21 21 20 19 18 16 15 14 14 14 15 15 15 15 15 16 16 17 17 18 18 19 20 20 19 18 18 19 20 22 23 24 24 24 23 23 24 25 25 26
5 5 7 10 13 13 12 12 13 15 18 19 20 21 21 22 22 22 22 22 21 21 21 20 19 18 16 15 14 13 13 14 15 15 14 13 13 13 14 15 16 17 18 19 20 20 20 19 18 19 19 21 23 24 25 25 25 25 26 26 26 25
6 6 9 11 11 9 9 10 12 16 18 20 21 21 21 21 21 21 21 21 21 20 19 19 19 17 16 15 14 13 13 14 14 14 12 12 11 12 13 14 15 16 17 18 19 20 20 19 18 17 17 19 21 23 24 25 26 27 27 27 27 27
6 7 10 8 6 6 7 10 13 17 19 19 20 20 20 20 20 20 20 20 19 19 18 18 18 17 16 15 13 13 13 14 13 13 12 12 12 12 13 14 14 15 16 17 18 19 19 18 17 16 16 17 19 21 23 24 25 26 26 27 28 28
8 9 9 7 6 7 9 12 14 17 18 18 18 18 18 19 19 19 19 19 19 18 18 17 17 16 15 14 13 13 14 14 13 13 13 14 14 13 14 14 14 14 15 16 17 18 18 17 16 16 16 16 17 19 21 22 23 24 24 25 26 27
10 9 7 6 7 9 11 13 15 17 17 17 16 16 17 18 19 19 18 19 19 18 17 16 16 17 16 14 14 15 15 15 15 15 14 15 14 14 14 14 14 14 14 14 15 16 17 16 15 15 14 15 15 16 17 19 21 22 23 23 24 26
10 8 7 7 9 11 13 14 15 16 16 15 15 15 16 17 19 18 17 18 19 18 17 16 17 17 15 14 15 17 16 16 17 16 15 15 15 15 15 15 15 15 15 14 13 14 14 14 14 14 13 13 13 13 15 17 19 21 22 23 24 25
9 9 8 10 12 13 14 14 15 15 15 15 15 15 16 18 18 17 17 18 19 17 17 17 18 17 15 16 17 18 17 17 18 16 15 15 15 16 16 16 16 16 17 16 15 14 14 14 13 13 13 13 13 14 14 15 18 20 21 22 23 24
10 10 10 11 13 14 14 15 15 15 15 15 15 16 17 18 18 18 17 18 18 17 17 18 18 17 17 17 17 17 17 17 18 16 15 15 16 17 16 15 16 16 17 17 17 16 16 15 15 14 14 14 15 15 15 15 16 18 20 21 22 23
13 11 11 12 13 14 14 14 15 15 15 15 16 16 17 18 19 19 18 17 18 17 16 17 17 17 16 16 16 16 17 16 17 16 15 15 16 16 15 15 15 16 17 17 18 18 18 18 17 16 16 16 17 17 17 17 17 18 19 20 21 23
15 11 11 11 12 13 13 14 14 14 13 14 14 15 17 18 19 20 18 17 17 17 15 15 15 15 15 16 16 16 16 16 16 17 16 16 16 16 15 15 16 17 17 18 19 20 20 20 19 18 18 18 18 18 18 18 18 19 19 19 20 21
13 11 9 9 10 11 13 13 13 13 12 13 14 15 16 17 18 19 18 16 16 16 15 14 14 14 15 16 17 17 17 17 17 18 18 17 16 16 16 16 16 17 18 18 19 19 20 21 20 19 19 18 19 20 19 19 19 19 19 19 19 19
10 8 8 9 10 11 13 13 13 12 12 13 14 15 17 18 19 19 18 17 16 16 15 14 14 14 14 15 16 18 18 18 18 19 19 18 17 16 16 16 17 17 17 17 16 16 17 17 18 18 18 19 19 20 20 20 20 19 20 20 20 19
7 7 8 10 11 12 13 14 13 12 12 12 13 15 16 17 19 19 19 18 17 17 16 15 15 14 14 15 16 17 18 18 19 20 20 19 17 15 15 16 17 17 16 15 14 14 13 14 15 17 18 18 19 20 21 21 21 21 21 21 21 21
7 9 10 11 12 13 14 14 13 12 11 12 12 13 14 15 17 18 18 18 18 17 16 16 15 14 14 15 15 15 17 19 19 19 19 19 17 16 16 17 17 17 16 15 14 13 13 13 14 16 17 17 18 19 21 21 22 22 22 22 23 23
9 11 11 12 13 14 15 14 13 12 12 11 12 12 12 13 14 15 16 17 17 17 17 17 16 15 14 14 14 15 16 18 18 18 18 18 18 17 17 17 18 18 17 17 17 16 15 15 16 17 18 19 19 18 20 21 22 22 23 23 23 24
11 12 12 13 14 16 16 16 14 13 13 12 13 12 12 12 12 13 14 15 16 17 17 17 17 16 15 15 15 15 15 16 17 18 18 18 19 18 18 18 19 19 19 19 20 19 17 17 18 19 19 19 19 19 20 20 21 22 22 23 24 24
11 12 12 13 15 16 17 17 16 15 14 13 13 12 11 11 11 11 12 13 14 16 17 17 17 17 17 16 15 15 15 16 17 18 19 19 19 19 19 20 20 21 21 22 22 20 19 19 19 20 20 20 21 21 21 21 21 22 22 23 24 24
12 12 13 14 15 17 19 19 19 17 15 13 14 13 11 10 10 10 11 13 14 15 16 17 18 18 18 17 16 15 16 17 18 19 20 20 20 20 21 21 21 23 23 23 23 21 20 20 21 20 21 21 22 22 22 22 22 23 23 24 24 25
13 13 13 14 16 18 20 20 20 19 16 14 14 13 11 11 11 10 11 12 14 15 16 17 17 18 18 19 18 17 17 18 19 19 20 20 20 21 21 22 23 24 25 24 25 23 21 22 22 22 22 23 23 24 24 23 23 24 24 25 25 25
14 13 13 15 17 18 19 19 19 19 17 15 14 14 13 12 12 12 11 11 13 15 16 17 18 18 19 19 19 19 19 19 19 19 20 20 21 21 22 23 23 25 26 26 27 25 23 23 24 24 24 25 25 25 26 26 26 25 25 26 26 26
14 13 14 15 16 17 17 17 17 18 17 17 17 16 15 15 16 16 15 12 11 13 16 17 18 19 19 19 20 21 21 20 20 20 20 21 21 22 22 23 24 25 26 27 27 26 25 24 25 25 26 26 26 26 27 27 28 27 27 27 27 27
14 14 15 16 17 16 16 16 16 18 18 19 19 18 18 20 21 20 18 14 11 12 15 17 18 20 20 20 20 21 22 22 22 22 22 22 22 22 22 23 24 24 25 26 26 26 26 25 25 26 26 26 27 27 27 28 28 29 29 29 29 28
14 15 15 16 16 16 17 17 18 19 20 21 21 20 20 21 20 20 19 15 11 12 15 17 18 20 21 21 21 22 22 23 23 23 23 23 23 22 22 22 22 23 24 24 24 25 25 25 25 25 25 25 26 26 27 27 28 28 29 29 29 29
15 16 16 17 18 18 19 20 21 21 22 22 21 20 20 21 19 19 19 18 16 18 19 19 19 19 20 21 21 22 23 24 24 24 24 23 23 22 22 21 21 22 22 22 22 23 23 23 23 24 24 24 25 25 26 26 27 27 28 29 29 28
18 18 19 19 20 21 22 22 23 23 23 23 22 20 21 22 22 21 21 20 21 22 20 18 18 18 19 20 21 21 22 24 24 24 24 23 23 22 21 20 20 20 20 20 20 21 21 21 22 22 23 23 24 24 25 25 25 26 27 27 27 27
20 20 20 21 21 22 23 24 24 24 25 25 24 23 23 24 26 27 25 22 20 18 17 16 16 16 17 18 19 20 22 23 24 24 23 23 21 20 19 17 17 17 17 18 18 19 19 20 21 22 22 23 23 23 23 24 24 24 25 25 25 25
21 20 20 20 21 22 24 24 24 24 25 24 25 25 25 27 30 30 27 22 17 15 14 14 13 14 15 16 17 19 20 22 22 22 22 21 20 18 16 15 14 14 14 15 16 17 17 18 19 20 21 21 22 22 22 22 22 22 22 22 22 22
21 21 21 22 23 23 24 25 24 24 24 24 24 24 23 24 25 23 21 18 14 12 12 12 12 13 14 15 15 17 18 20 21 21 21 21 20 18 16 14 13 12 12 13 13 14 14 15 15 16 17 18 18 19 19 19 19 19 19 20 20 19
21 22 21 21 21 21 21 22 24 25 24 22 20 19 18 18 15 15 15 15 13 13 12 12 12 12 13 14 15 15 17 19 20 20 20 20 20 19 17 16 14 13 12 12 12 12 11 11 11 12 12 13 13 14 15 15 16 16 17 17 17 16
22 22 21 19 20 20 20 20 20 20 19 17 16 15 16 16 14 13 15 15 14 14 13 13 13 12 13 14 15 15 16 17 18 19 19 19 19 18 18 17 17 16 15 14 13 12 11 10 9 9 9 9 10 10 11 12 12 13 14 15 15 15
Wind_Direction
269 276 280 282 290 300 301 287 272 258 252 249 250 251 251 252 256 260 263 263 264 265 268 273 278 281 282 281 281 279 276 273 270 265 259 254 254 255 255 254 252 250 248 244 243 242 240 238 234 228 227 231 237 241 243 243 243 243 243 243 245 249
275 284 291 296 303 306 295 278 264 256 253 251 252 253 254 256 258 260 261 261 263 266 270 276 279 281 282 282 281 279 277 273 269 264 257 252 250 253 254 254 254 252 249 247 244 243 241 239 235 229 226 229 233 238 241 241 242 242 242 242 242 244
281 285 292 300 305 303 287 272 262 256 253 253 254 255 256 257 258 258 257 259 263 267 272 276 279 280 281 281 279 278 275 272 268 264 258 251 247 248 250 252 253 253 251 248 245 242 240 238 236 230 225 227 231 234 238 239 240 241 241 242 242 242
282 281 285 293 297 289 275 267 263 261 259 258 257 256 255 254 255 255 256 260 264 268 272 274 277 278 278 278 277 276 274 272 269 264 257 250 245 244 246 248 250 250 250 248 246 242 239 236 233 227 223 224 228 231 234 237 239 241 242 242 243 243
273 271 274 283 285 272 264 263 264 265 264 259 255 252 251 250 252 253 256 260 263 267 270 273 276 277 277 276 274 273 272 270 268 264 256 247 242 240 241 243 245 246 247 248 247 243 238 233 228 221 218 220 223 227 231 234 236 239 241 242 242 242
256 251 254 265 265 259 260 264 266 267 264 259 254 252 250 250 251 253 255 259 264 268 271 274 276 277 277 274 270 270 270 268 264 261 254 245 240 239 239 241 243 244 245 246 246 243 237 229 221 216 215 218 220 224 227 230 232 236 239 240 241 241
233 225 231 248 257 261 265 268 267 264 261 258 255 252 251 250 250 252 257 262 266 270 273 274 276 277 276 273 269 268 269 266 262 258 253 247 242 242 243 243 243 242 242 244 245 244 237 229 223 219 216 217 220 223 225 227 229 233 236 239 241 242
208 215 233 245 253 258 261 264 264 261 256 254 252 250 249 250 252 255 260 265 270 273 275 276 276 275 273 270 265 265 266 262 259 257 254 250 246 245 245 244 243 242 241 243 245 245 240 234 230 226 222 220 222 223 225 226 228 231 235 239 242 244
204 220 233 238 243 248 254 259 261 258 254 252 251 250 252 254 257 261 264 269 273 276 278 278 275 270 266 262 259 259 259 257 256 255 252 247 243 242 242 243 244 244 243 242 243 244 243 239 235 232 228 225 225 225 226 227 229 232 234 236 239 242
220 229 232 232 235 245 253 256 256 254 253 252 252 254 257 260 263 265 267 269 271 273 273 273 270 265 260 257 255 254 252 251 250 249 246 241 240 240 241 242 243 244 244 243 241 241 240 238 235 231 227 225 226 227 228 230 232 237 240 239 239 240
235 231 232 234 237 247 251 252 252 251 251 252 254 257 260 263 265 265 267 267 267 266 267 270 270 265 259 253 249 246 244 243 242 242 241 240 240 241 242 242 241 242 242 242 241 239 238 237 236 232 230 230 230 230 232 234 236 241 245 246 246 245
227 228 233 236 240 245 249 250 250 249 249 251 253 257 262 264 265 264 264 263 262 263 265 269 268 262 255 247 243 242 241 240 240 240 239 239 238 237 241 243 244 244 242 241 240 239 238 237 236 235 236 236 235 236 238 240 241 242 245 247 248 248
222 230 235 237 243 246 248 251 252 253 253 253 256 259 262 264 265 265 263 260 259 261 264 264 261 259 252 241 238 241 242 240 239 238 237 237 235 236 240 245 248 250 248 246 243 242 241 239 236 235 236 237 237 239 242 244 245 246 246 246 247 248
225 224 228 236 243 248 250 254 257 259 259 259 262 262 262 263 264 264 261 260 260 262 265 265 261 258 249 235 233 241 246 243 239 236 233 232 232 234 239 244 248 251 252 252 251 248 247 246 243 240 241 240 239 239 240 242 244 246 246 247 248 248
233 221 228 238 245 253 256 258 261 263 264 264 265 265 266 268 269 267 264 266 268 268 270 272 269 263 254 241 237 242 246 246 243 238 231 227 228 230 234 240 245 248 249 250 250 249 248 248 248 248 249 248 247 243 240 240 241 243 245 246 247 248
240 228 232 241 248 257 261 264 266 266 266 266 266 267 270 272 273 273 273 272 272 271 271 274 274 269 262 250 246 247 247 248 248 243 233 228 229 229 230 234 240 243 245 247 249 249 248 247 247 249 251 253 253 250 245 243 244 245 245 245 246 248
236 232 235 242 251 260 266 269 269 269 269 269 269 269 271 272 273 275 276 273 272 271 269 271 272 269 264 255 250 250 250 252 252 248 239 231 229 230 232 234 237 239 242 246 249 252 251 248 244 244 247 251 254 253 249 247 247 248 248 248 248 250
231 234 241 250 260 264 268 271 272 275 276 277 278 278 278 277 278 278 277 274 272 270 267 263 263 262 261 258 253 251 251 251 249 247 241 234 231 232 235 238 238 239 242 246 250 254 255 250 243 241 244 249 252 253 251 249 248 249 250 249 250 253
235 238 251 261 265 266 269 274 276 278 280 282 284 286 287 286 285 283 280 277 273 271 267 261 259 260 258 256 253 251 251 249 245 244 241 237 235 234 238 243 244 241 241 247 252 256 256 249 241 240 244 246 248 251 251 250 250 250 250 249 251 254
239 248 258 262 264 266 270 273 273 274 275 277 279 282 284 285 284 283 281 279 275 272 269 262 260 260 258 257 256 254 254 250 247 245 243 238 235 235 240 247 250 246 244 246 249 253 253 246 240 242 249 250 247 248 250 251 251 251 251 251 253 255
241 249 252 256 263 267 268 268 267 268 269 270 271 273 278 282 283 282 280 278 276 273 270 266 262 260 258 259 259 257 254 252 248 245 243 241 238 237 240 246 249 249 250 249 248 250 250 247 244 246 253 255 252 249 249 251 252 252 252 253 255 257
238 243 246 253 260 265 265 263 263 263 264 265 266 269 276 282 284 283 283 281 278 276 273 270 267 264 260 258 258 256 252 251 249 248 247 247 246 242 240 242 243 246 250 251 253 257 255 252 252 253 255 255 255 253 249 249 250 251 252 252 253 255
237 242 246 250 255 260 261 260 262 265 267 266 265 267 274 280 285 288 288 286 283 279 276 274 271 267 263 259 257 256 254 253 253 254 253 251 248 243 239 240 242 245 246 248 254 258 256 253 254 258 260 258 258 257 252 250 251 252 253 253 253 253
241 244 246 247 250 254 258 262 266 269 269 265 261 263 270 278 287 293 295 292 288 283 279 275 273 270 267 263 259 256 256 255 254 254 253 251 248 244 241 241 244 246 246 247 251 254 256 256 254 256 260 258 258 258 255 255 255 255 254 254 254 255
244 247 249 248 248 250 255 262 267 267 262 258 258 259 264 271 281 291 296 296 292 287 281 276 272 269 267 265 261 257 254 252 252 251 251 251 249 247 246 246 248 250 252 252 254 256 258 258 255 254 256 257 257 259 258 257 256 255 255 255 255 256
246 249 251 251 249 251 256 261 265 265 256 250 255 259 262 267 272 279 286 292 292 289 284 279 275 271 269 266 263 259 255 251 250 250 251 251 251 251 251 251 252 254 256 256 256 255 252 253 254 255 258 259 259 260 261 259 257 256 256 257 257 258
243 247 251 253 254 256 261 264 267 266 255 243 249 257 261 265 271 275 277 282 288 289 286 282 279 276 272 269 266 262 257 254 252 250 250 250 251 252 254 255 255 254 256 256 255 254 251 251 254 256 259 260 260 261 262 263 262 261 260 260 259 259
245 249 253 257 261 264 266 268 269 267 255 244 245 252 259 270 280 281 276 275 283 290 290 286 281 277 274 271 268 264 260 255 252 251 250 250 250 251 252 254 255 255 256 256 257 258 258 257 257 258 259 260 261 262 263 263 264 264 264 262 261 261
253 256 258 261 264 262 261 263 265 264 259 254 252 256 266 277 283 282 276 274 281 291 295 292 286 279 273 270 268 265 261 256 252 250 248 248 248 249 250 250 252 253 254 255 257 258 259 258 257 257 257 258 259 261 262 263 264 265 265 265 264 263
253 256 257 257 257 252 250 254 259 261 262 260 259 263 272 278 281 280 277 275 281 294 298 292 287 281 273 268 265 263 261 256 253 250 247 246 245 245 247 248 249 250 251 252 254 255 256 257 256 256 257 258 260 261 263 264 265 266 267 268 267 266
249 252 253 254 253 251 252 255 259 262 262 262 262 264 269 275 277 278 277 275 280 292 295 288 283 280 273 266 262 260 258 255 251 249 246 244 243 242 243 245 246 247 248 250 251 253 255 256 257 257 258 259 260 261 263 264 265 266 267 268 268 268
250 251 252 253 255 256 257 259 261 264 266 267 266 266 267 271 274 275 276 275 278 285 287 282 278 276 271 265 260 257 255 252 249 246 244 242 241 240 241 244 246 248 249 250 252 254 256 258 259 260 260 260 260 260 261 262 263 264 265 266 267 268
251 252 256 260 262 263 262 263 265 268 271 271 269 268 268 269 270 273 275 275 275 275 276 277 278 276 272 265 260 258 254 251 247 245 243 242 240 240 240 243 246 250 253 254 256 257 258 260 262 263 263 263 262 262 262 262 263 264 265 266 267 267
253 257 261 264 265 267 267 268 269 271 273 270 268 270 270 270 270 268 268 270 269 267 267 273 278 278 273 266 262 260 256 252 247 244 242 241 240 240 239 241 243 247 252 255 257 258 260 262 263 265 266 267 266 266 265 265 266 267 267 268 269 269
257 259 260 261 264 266 269 270 271 272 272 269 270 273 273 275 271 259 256 265 266 260 259 268 276 278 273 266 264 263 259 254 248 243 240 239 237 236 235 235 236 238 244 248 253 256 258 261 264 266 269 271 272 273 272 272 271 272 272 273 273 273
261 262 262 266 268 268 272 276 278 279 276 271 271 272 272 277 271 251 254 268 268 259 259 265 273 274 270 264 261 261 260 257 252 246 242 239 237 235 233 231 229 228 230 234 241 246 250 256 260 265 270 274 277 279 280 280 279 279 279 280 281 281
266 268 267 269 271 274 282 286 286 286 284 279 277 274 273 277 273 261 264 270 266 262 263 268 272 271 268 264 261 260 259 257 254 251 247 244 241 239 237 235 231 227 225 225 227 231 236 243 249 256 263 269 274 278 280 282 282 282 283 284 286 287